Regional Weather Roundup
Issued by NWS

Home | Current Version | Previous Version | Graphics & Text | Print | Product List | Glossary On
Versions: 1 2 3 4 5 6 7 8 9 10 11 12 13 14 15 16 17 18 19 20 21 22 23 24 25 26 27 28 29 30 31 32 33 34 35 36 37 38 39 40 41 42 43 44 45 46 47 48 49 50
000
ASUS44 KMEG 161000
RWRTN
TENNESSEE HOURLY STATE WEATHER ROUNDUP
NATIONAL WEATHER SERVICE MEMPHIS TN
500 AM CDT WED AUG 16 2017

TNZ002-004-019-021-049-052-054-088>092-161100-
WEST TENNESSEE

CITY           SKY/WX    TMP DP  RH WIND       PRES   REMARKS
MEMPHIS INTL   CLOUDY    77  74  90 S9        29.97R
NWS MEMPHIS      N/A     75 N/A N/A MISG        N/A
JACKSON        CLOUDY    75  75 100 S5        29.98R
DYERSBURG      PTCLDY    72  72 100 CALM      29.97R FOG
$$

TNZ008-025-027-028-033-062-065-066-161100-
NORTH MIDDLE TENNESSEE

CITY           SKY/WX    TMP DP  RH WIND       PRES   REMARKS
NASHVILLE      CLOUDY    74  72  93 S6        30.02R
CLARKSVILLE    CLOUDY    70  68  93 CALM      30.00R
SMYRNA         CLOUDY    73  73 100 CALM      30.03R
CROSSVILLE     CLEAR     66  65  96 CALM      30.09R
$$

TNZ061-075-076-078-094-096-097-161100-
SOUTH MIDDLE TENNESSEE

CITY           SKY/WX    TMP DP  RH WIND       PRES   REMARKS
TULLAHOMA      CLOUDY    70  70 100 S5        30.06R
WINCHESTER     PTCLDY    70  70 100 CALM      30.06R
$$

TNZ017-018-042-046-047-161100-
NORTHEAST TENNESSEE

CITY           SKY/WX    TMP DP  RH WIND       PRES   REMARKS
TRI CITIES     PTCLDY    70  70 100 CALM      30.06R
$$

TNZ012-013-036-069-073-074-161100-
CENTRAL EAST TENNESSEE

CITY           SKY/WX    TMP DP  RH WIND       PRES   REMARKS
KNOXVILLE      PTCLDY    72  70  93 W3        30.03R
OAK RIDGE      CLOUDY    72  70  93 CALM      30.05R
GATLINBURG     CLEAR     68  66  94 CALM      30.04R
$$

TNZ083-085-099-161100-
SOUTHEAST TENNESSEE

CITY           SKY/WX    TMP DP  RH WIND       PRES   REMARKS
CHATTANOOGA    PTCLDY    73  71  93 CALM      30.05R
$$

SKY/WX REPORTED AS FAIR MEANS FEW OR NO CLOUDS BELOW
12 THOUSAND FEET.





USA.gov is the U.S. government's official web portal to all federal, state and local government web resources and services.